Sterling, IL

1:43 PM CST on November 20, 2019 (GMT -0600)
Whiteside County-Bittorf

Weather History for KSQI - September, 2019

Change the Weather History Date:

Thursday, September 12, 2019

  Actual Average Record
Temperature  
Mean Temperature 78 °F -  
Max Temperature 89 °F 75 °F 91 °F (2005)
Min Temperature 68 °F 51 °F 41 °F (2007)
Cooling Degree Days 14    
Growing Degree Days 28 (Base 50)    
Moisture  
Dew Point 72 °F    
Average Humidity 85    
Maximum Humidity 100    
Minimum Humidity 59    
Precipitation  
Precipitation 1.55 in - - ()
Sea Level Pressure  
Sea Level Pressure 29.71 in    
Wind  
Wind Speed 5 mph ()    
Max Wind Speed 13 mph    
Max Gust Speed 29 mph    
Visibility 8.5 miles    
Events Rain , Thunderstorm    
Averages and records for this station are not official NWS values.
T = Trace of Precipitation, MM = Missing Value Source: Averaged Metar Reports

Daily Weather History Graph

Daily Weather History Graph

Search for Another Location

Airport or City:

Astronomy

Sep. 12, 2019 Rise Set
Actual Time 6:35 AM CDT 7:13 PM CDT
Civil Twilight 6:07 AM CDT 7:41 PM CDT
Nautical Twilight 5:34 AM CDT 8:14 PM CDT
Astronomical Twilight 5:00 AM CDT 8:48 PM CDT
Moon 6:59 PM CDT (9/12) 4:53 AM CDT (9/12)
Length of Visible Light 13h 34m
Length of Day
12h 38m
Waxing Gibbous, 98% of the Moon is Illuminated
Sep 12
Waxing Gibbous
Sep 13
Full
Sep 21
Last Quarter
Sep 28
New
Oct 5
First Quarter

Hourly Weather History & Observations

Time (CDT) Temp. Heat Index Dew Point Humidity Pressure Visibility Wind Dir Wind Speed Gust Speed Precip Events Conditions
12:56 AM 73.0 °F - 72.0 °F 96% 29.65 in 9.0 mi North 5.8 mph - N/A   Scattered Clouds
1:56 AM 72.0 °F - 69.1 °F 91% 29.66 in 10.0 mi North 6.9 mph - N/A   Clear
2:56 AM 70.0 °F - 69.1 °F 97% 29.66 in 10.0 mi ENE 4.6 mph - N/A   Clear
3:56 AM 68.0 °F - 68.0 °F 100% 29.67 in 10.0 mi Calm Calm - N/A   Clear
4:56 AM 69.1 °F - 68.0 °F 96% 29.68 in 10.0 mi ENE 5.8 mph - N/A   Partly Cloudy
5:56 AM 68.0 °F - 68.0 °F 100% 29.68 in 8.0 mi East 4.6 mph - N/A   Clear
6:56 AM 68.0 °F - 68.0 °F 100% 29.69 in 5.0 mi East 5.8 mph - N/A   Clear
7:56 AM 69.1 °F - 69.1 °F 100% 29.70 in 9.0 mi East 5.8 mph - N/A   Clear
8:56 AM 73.0 °F - 71.1 °F 93% 29.68 in 10.0 mi ESE 8.1 mph - N/A   Clear
9:56 AM 78.1 °F - 73.0 °F 84% 29.68 in 10.0 mi SE 8.1 mph - N/A   Clear
10:56 AM 81.0 °F 86.7 °F 75.0 °F 82% 29.66 in 10.0 mi SE 5.8 mph - N/A   Clear
11:56 AM 84.0 °F 92.6 °F 75.9 °F 76% 29.66 in 10.0 mi Variable 4.6 mph - N/A   Clear
12:56 PM 80.1 °F 85.4 °F 75.9 °F 87% 29.65 in 9.0 mi ESE 4.6 mph - 0.01 in Rain Light Rain
1:56 PM 88.0 °F 97.5 °F 75.0 °F 65% 29.62 in 10.0 mi Variable 5.8 mph - 0.00 in   Partly Cloudy
2:56 PM 87.1 °F 94.5 °F 73.0 °F 63% 29.62 in 10.0 mi Variable 4.6 mph - N/A   Scattered Clouds
3:56 PM 89.1 °F 97.0 °F 73.0 °F 59% 29.59 in 10.0 mi Variable 5.8 mph - N/A   Clear
4:56 PM 88.0 °F 96.5 °F 73.9 °F 63% 29.57 in 10.0 mi SSE 9.2 mph - N/A   Clear
5:56 PM 86.0 °F 93.0 °F 73.0 °F 65% 29.56 in 10.0 mi Variable 6.9 mph - N/A   Clear
6:56 PM 82.0 °F 87.9 °F 73.9 °F 76% 29.56 in 10.0 mi Variable 4.6 mph - N/A   Clear
7:56 PM 79.0 °F - 73.9 °F 84% 29.57 in 10.0 mi SE 3.5 mph - N/A   Clear
8:54 PM 78.8 °F - 73.4 °F 83% 29.98 in 10.0 mi Variable 5.8 mph - N/A Thunderstorm Mostly Cloudy
8:56 PM 79.0 °F - 73.9 °F 84% 29.57 in 10.0 mi SE 8.1 mph - N/A Thunderstorm Mostly Cloudy
9:07 PM 78.8 °F - 73.4 °F 83% 29.97 in 10.0 mi SE 6.9 mph - N/A Thunderstorm Mostly Cloudy
9:24 PM 78.8 °F - 73.4 °F 83% 30.00 in 2.0 mi North - - 0.25 in Rain , Thunderstorm Heavy Thunderstorms and Rain
9:35 PM - - - N/A% - 5.0 mi North - - 0.46 in Rain , Thunderstorm Thunderstorms and Rain
9:38 PM - - - N/A% - 8.0 mi WSW 12.7 mph 16.1 mph 0.47 in Rain , Thunderstorm Light Thunderstorms and Rain
9:47 PM 75.2 °F - 69.8 °F 83% 29.98 in 5.0 mi North - - 0.58 in Rain , Thunderstorm Thunderstorms and Rain
9:56 PM 73.0 °F - 71.1 °F 93% 29.56 in 10.0 mi Variable 5.8 mph - 0.60 in Rain , Thunderstorm Light Thunderstorms and Rain
10:19 PM 75.2 °F - 71.6 °F 89% 29.96 in 3.0 mi SE 4.6 mph 28.8 mph 0.33 in Rain , Thunderstorm Thunderstorms and Rain
10:56 PM 77.0 °F - 73.0 °F 88% 29.56 in 10.0 mi Variable 6.9 mph - 0.38 in   Partly Cloudy
11:06 PM 77.0 °F - 73.4 °F 89% 29.97 in 10.0 mi Variable 5.8 mph - 0.01 in Thunderstorm Mostly Cloudy
11:22 PM 73.4 °F - 68.0 °F 83% - 8.0 mi North - - 0.02 in Rain , Thunderstorm Light Thunderstorms and Rain
11:29 PM 73.4 °F - 68.0 °F 83% - 2.0 mi North - - 0.11 in Rain , Thunderstorm Heavy Thunderstorms and Rain
11:36 PM 73.4 °F - 68.0 °F 83% 29.98 in 3.0 mi North - - 0.26 in Rain , Thunderstorm Heavy Thunderstorms and Rain
11:47 PM 69.8 °F - 68.0 °F 94% - 10.0 mi North - - 0.43 in Rain , Thunderstorm Thunderstorms and Rain
11:56 PM 70.0 °F - 69.1 °F 97% 29.57 in 10.0 mi Variable 6.9 mph - 0.56 in Rain , Thunderstorm Light Thunderstorms and Rain